Weather History for KSPB - October, 2012

Change the Weather History Date:

Tuesday, October 23, 2012

  Actual Average Record
Temperature  
Mean Temperature 46 °F -  
Max Temperature 52 °F - 75 °F (2007)
Min Temperature 40 °F - 35 °F (2008)
Degree Days  
Heating Degree Days 19    
Month to date heating degree days 264  
Since 1 July heating degree days 422  
Cooling Degree Days 0    
Month to date cooling degree days 6  
Year to date cooling degree days 245  
Moisture  
Dew Point 40 °F    
Average Humidity 79    
Maximum Humidity 92    
Minimum Humidity 66    
Precipitation  
Precipitation 0.26 in - 0.94 in (2010)
Month to date precipitation 2.94  
Year to date precipitation 33.94  
Sea Level Pressure  
Sea Level Pressure 29.83 in    
Wind  
Wind Speed 5 mph (SSE)    
Max Wind Speed 13 mph    
Max Gust Speed 20 mph    
Visibility 9 miles    
Events Rain    
T = Trace of Precipitation, MM = Missing Value Source: NWS Daily Summary

Daily Weather History Graph

Daily Weather History Graph

Search for Another Location

Airport or City:

Trip Planner

Search our weather history database for the weather conditions in past years. The results will help you decide how hot, cold, wet, or windy it might be!

Date:

Astronomy

Oct. 23, 2012 Rise Set
Actual Time 7:39 AM PDT 6:10 PM PDT
Civil Twilight 7:09 AM PDT 6:41 PM PDT
Nautical Twilight 6:34 AM PDT 7:16 PM PDT
Astronomical Twilight 6:00 AM PDT 7:50 PM PDT
Moon 3:13 PM PDT (10/23) 1:19 AM PDT (10/23)
Length of Visible Light 11h 32m
Length of Day
10h 31m
Waxing Gibbous, 67% of the Moon is Illuminated
Oct 23
Waxing Gibbous
Oct 29
Full
Nov 6
Last Quarter
Nov 13
New
Nov 20
First Quarter

Hourly Weather History & Observations

Time (PDT) Temp. Windchill Dew Point Humidity Pressure Visibility Wind Dir Wind Speed Gust Speed Precip Events Conditions
12:53 AM 43.0 °F 39.5 °F 39.9 °F 89% 29.72 in 10.0 mi SE 5.8 mph - N/A   Overcast
1:53 AM 43.0 °F 41.3 °F 39.9 °F 89% 29.73 in 10.0 mi SE 3.5 mph - N/A   Overcast
2:53 AM 43.0 °F 39.5 °F 39.0 °F 86% 29.75 in 10.0 mi SSE 5.8 mph - N/A   Overcast
3:30 AM 42.8 °F 41.1 °F 39.2 °F 87% 29.75 in 10.0 mi SSE 3.5 mph - N/A   Overcast
3:53 AM 42.1 °F 40.2 °F 39.0 °F 89% 29.75 in 10.0 mi SSE 3.5 mph - N/A   Overcast
4:03 AM 42.8 °F 41.1 °F 39.2 °F 87% 29.75 in 10.0 mi South 3.5 mph - N/A   Overcast
4:10 AM 42.8 °F - 39.2 °F 87% 29.75 in 10.0 mi Calm Calm - N/A   Overcast
4:53 AM 42.1 °F 39.2 °F 39.0 °F 89% 29.77 in 10.0 mi SE 4.6 mph - N/A   Overcast
5:53 AM 43.0 °F - 39.9 °F 89% 29.78 in 10.0 mi Calm Calm - 0.00 in   Overcast
6:44 AM 41.0 °F - 39.2 °F 93% 29.79 in 10.0 mi Calm Calm - 0.00 in   Overcast
6:53 AM 42.1 °F - 39.0 °F 89% 29.79 in 10.0 mi Calm Calm - 0.00 in   Overcast
7:53 AM 43.0 °F 41.3 °F 39.9 °F 89% 29.81 in 10.0 mi South 3.5 mph - N/A   Overcast
8:38 AM 44.6 °F 42.2 °F 39.2 °F 81% 29.82 in 10.0 mi South 4.6 mph - 0.00 in   Overcast
8:53 AM 44.1 °F 40.1 °F 39.9 °F 85% 29.83 in 10.0 mi South 6.9 mph - 0.00 in   Mostly Cloudy
9:35 AM 44.6 °F 42.2 °F 39.2 °F 81% 29.84 in 10.0 mi South 4.6 mph - N/A   Overcast
10:53 AM 46.9 °F - 39.9 °F 77% 29.85 in 10.0 mi South 8.1 mph - N/A   Mostly Cloudy
11:53 AM 48.9 °F - 42.1 °F 77% 29.86 in 10.0 mi South 9.2 mph - 0.00 in   Overcast
12:03 PM 48.2 °F - 41.0 °F 76% 29.86 in 10.0 mi South 11.5 mph 17.3 mph N/A   Overcast
12:53 PM 48.9 °F - 39.9 °F 71% 29.86 in 10.0 mi South 10.4 mph - N/A   Mostly Cloudy
1:01 PM 48.2 °F - 39.2 °F 71% 29.86 in 10.0 mi SSW 11.5 mph 18.4 mph N/A   Overcast
1:53 PM 48.9 °F - 39.9 °F 71% 29.86 in 10.0 mi Variable 5.8 mph - N/A   Overcast
2:53 PM 50.0 °F - 39.9 °F 68% 29.87 in 10.0 mi SSW 8.1 mph - 0.00 in   Mostly Cloudy
3:53 PM 50.0 °F - 39.9 °F 68% 29.86 in 10.0 mi SSW 10.4 mph - 0.00 in   Partly Cloudy
4:53 PM 50.0 °F - 39.9 °F 68% 29.87 in 10.0 mi Variable 4.6 mph - N/A   Mostly Cloudy
5:53 PM 48.0 °F - 39.9 °F 74% 29.87 in 10.0 mi Calm Calm - 0.00 in   Mostly Cloudy
6:33 PM 46.4 °F 45.2 °F 41.0 °F 81% 29.87 in 10.0 mi SE 3.5 mph - 0.00 in Rain Light Rain
6:53 PM 46.0 °F 41.9 °F 41.0 °F 83% 29.87 in 10.0 mi SE 8.1 mph - 0.00 in   Overcast
7:53 PM 45.0 °F 43.5 °F 42.1 °F 90% 29.87 in 10.0 mi SSE 3.5 mph - 0.00 in Rain Light Rain
8:53 PM 45.0 °F 41.2 °F 42.1 °F 90% 29.87 in 7.0 mi SSE 6.9 mph - 0.03 in Rain Light Rain
9:53 PM 44.1 °F - 42.1 °F 93% 29.86 in 7.0 mi Calm Calm - 0.04 in Rain Light Rain
10:13 PM 44.6 °F - 42.8 °F 93% 29.86 in 6.0 mi Calm Calm - 0.02 in Rain Light Rain
10:39 PM 44.6 °F - 42.8 °F 93% 29.86 in 6.0 mi Calm Calm - 0.05 in Rain Light Rain
10:53 PM 44.1 °F - 42.1 °F 93% 29.86 in 5.0 mi Calm Calm - 0.07 in Rain Rain
11:21 PM 44.6 °F - 42.8 °F 93% 29.86 in 4.0 mi Calm Calm - 0.03 in Rain Light Rain
11:53 PM 44.1 °F 42.5 °F 43.0 °F 96% 29.87 in 3.0 mi Variable 3.5 mph - 0.09 in Rain Rain